Orbital Elements at Epoch 2459200.5 (2020-Dec-17.0) TDB
Reference: JPL 24 (heliocentric ecliptic J2000)
Element | Value | Uncertainty (1-sigma) | Units |
e | .298318079982991 | 4.7215e-08 | |
a | 2.570989061933817 | 1.1623e-08 | au |
q | 1.804016541320449 | 1.2619e-07 | au |
i | 3.965157428166964 | 4.8206e-06 | deg |
node | 17.78942456050562 | 6.0941e-05 | deg |
peri | 316.9588355552348 | 6.1902e-05 | deg |
M | 70.51667956870729 | 1.4862e-05 | deg |
tp | 2458905.556979197286 (2020-Feb-26.05697920) | 6.0413e-05 | TDB |
period | 1505.735779653691 4.12 | 1.0211e-05 2.796e-08 | d yr |
n | .2390857711323015 | 1.6213e-09 | deg/d |
Q | 3.337961582547184 | 1.5091e-08 | au |
|
| | Orbit Determination Parameters
Additional Information
|